Powrót do katalogu

STARLINK-4352

AktywnyŁącznośćSSO
NORAD 53047·PAYLOAD·🇺🇸 United States

Wystrzelony Jul 11, 2022 z Vandenberg Space Force Base

Loading…

Następne Przeloty (najbliższe 24 godziny)

TLE

ŚwieżeSource: CelesTrak SupGP

Epoka: Sep 15, 2026, 02:04 UTC

1 53047C 22077E   26258.08659722 -.00071857  00000+0 -22305-2 0  2580
2 53047  97.2855  73.0020 0001397  92.2107 151.4748 15.33477695    11

Śledź STARLINK-4352 w czasie rzeczywistym z AllMySat

Download on the App Store